User: anonymous   Login
Location: Cormont
(50.5693°N, 1.7416°E)
Time: 19:06:43
(UTC+00:00)
Language:

CZ-2D R/B - Orbit

View from above orbital plane
View from above orbital plane
View from above satellite
View from above satellite

Ground track
Ground track

The orbit data is extracted from the following two-line orbital elements,

1 28738U 05024B   19344.11227013  .00000172  00000-0  13657-4 0  9993
2 28738  97.3997   7.8218 0013435 118.0601 242.1990 15.11922186792666
Epoch (UTC): 10 December 2019 02:41:40
Eccentricity: 0.0013435
inclination: 97.3997°
perigee height: 521 km
apogee height: 539 km
right ascension of ascending node: 7.8218°
argument of perigee: 118.0601°
revolutions per day: 15.11922186
mean anomaly at epoch: 242.1990°
orbit number at epoch: 79266

The dashed part of the orbit path shows where the satellite is in the earth's shadow,  

DLR